FW4245 Weather Reports


Display with metric or nautical units.
time (UTC)temp
F
wind
direction
speed
MPH
gust
MPH
rain 1hr
in
rain 24hr
in
rain mn
in
humidity
%
barometer
mb
20260505171041 80 16 6.0 13.0 0.00 0.00 0.00 46 1016.3
20260505171008 80 271 5.0 12.0 0.00 0.00 0.00 46 1015.9
20260505170540 79 240 5.0 13.0 0.00 0.00 0.00 47 1016.4
20260505170505 79 244 6.0 14.0 0.00 0.00 0.00 46 1016.0
20260505170039 79 158 5.0 14.0 0.00 0.00 0.00 47 1016.5
20260505170023 79 252 5.0 14.0 0.00 0.00 0.00 46 1016.1
20260505165536 79 279 6.0 14.0 0.00 0.00 0.00 47 1016.6
20260505165509 79 281 6.0 14.0 0.00 0.00 0.00 47 1016.1
20260505165036 79 240 6.0 14.0 0.00 0.00 0.00 47 1016.6
20260505165006 79 245 5.0 14.0 0.00 0.00 0.00 47 1016.0
20260505164540 79 297 5.0 13.0 0.00 0.00 0.00 49 1016.6
20260505164522 79 235 5.0 15.0 0.00 0.00 0.00 49 1016.1
20260505164037 79 233 5.0 15.0 0.00 0.00 0.00 50 1016.6
20260505164011 79 249 5.0 15.0 0.00 0.00 0.00 50 1016.1
20260505163534 79 264 3.0 14.0 0.00 0.00 0.00 50 1016.6
20260505163506 79 207 3.0 14.0 0.00 0.00 0.00 50 1016.1
20260505163034 79 41 3.0 14.0 0.00 0.00 0.00 51 1016.7
20260505163025 78 264 4.0 14.0 0.00 0.00 0.00 51 1016.2
20260505162533 78 278 5.0 13.0 0.00 0.00 0.00 51 1016.7
20260505162510 78 204 5.0 13.0 0.00 0.00 0.00 49 1016.1
20260505162032 78 207 5.0 13.0 0.00 0.00 0.00 50 1016.7
20260505162008 78 169 5.0 13.0 0.00 0.00 0.00 50 1016.2
20260505161531 78 235 4.0 12.0 0.00 0.00 0.00 50 1016.8
20260505161522 78 192 5.0 12.0 0.00 0.00 0.00 50 1016.3
20260505161031 78 237 4.0 12.0 0.00 0.00 0.00 51 1016.7
20260505161011 78 262 4.0 12.0 0.00 0.00 0.00 51 1016.5
20260505160530 78 267 5.0 12.0 0.00 0.00 0.00 52 1016.8
20260505160505 78 209 5.0 12.0 0.00 0.00 0.00 51 1016.5
20260505153029 76 160 5.0 16.0 0.00 0.00 0.00 54 1016.6
20260505153025 76 157 5.0 16.0 0.00 0.00 0.00 54 1016.9
20260505152525 76 62 3.0 14.0 0.00 0.00 0.00 55 1017.0
20260505152511 76 148 4.0 14.0 0.00 0.00 0.00 54 1016.6
20260505152023 75 301 4.0 14.0 0.00 0.00 0.00 56 1017.0
20260505152010 75 238 5.0 14.0 0.00 0.00 0.00 55 1016.6
20260505151526 75 255 6.0 11.0 0.00 0.00 0.00 55 1016.5
20260505151521 75 143 5.0 11.0 0.00 0.00 0.00 55 1016.9
20260505151021 75 233 4.0 11.0 0.00 0.00 0.00 57 1016.9
20260505151008 75 165 4.0 11.0 0.00 0.00 0.00 56 1016.5
20260505150520 75 237 4.0 11.0 0.00 0.00 0.00 57 1016.9
20260505150513 75 188 5.0 11.0 0.00 0.00 0.00 56 1016.6
20260505140513 70 213 6.0 18.0 0.00 0.00 0.00 62 1016.8
20260505140506 70 348 5.0 18.0 0.00 0.00 0.00 63 1017.2
20260505125012 66 273 6.0 15.0 0.00 0.00 0.00 67 1017.0
20260505124552 66 258 3.0 15.0 0.00 0.00 0.00 69 1017.3
20260505124514 66 333 5.0 15.0 0.00 0.00 0.00 68 1017.0
20260505124052 66 316 6.0 15.0 0.00 0.00 0.00 68 1017.2
20260505124007 66 267 6.0 15.0 0.00 0.00 0.00 68 1016.9
20260505123553 65 235 4.0 12.0 0.00 0.00 0.00 69 1017.2
20260505123504 65 319 4.0 12.0 0.00 0.00 0.00 68 1016.9
20260505123051 65 296 3.0 12.0 0.00 0.00 0.00 69 1017.3
20260505123015 65 195 3.0 12.0 0.00 0.00 0.00 69 1017.0
20260505122547 65 192 3.0 11.0 0.00 0.00 0.00 70 1017.3
20260505122506 65 248 3.0 11.0 0.00 0.00 0.00 70 1016.9
20260505122047 64 220 4.0 12.0 0.00 0.00 0.00 70 1017.2
20260505122003 64 245 4.0 12.0 0.00 0.00 0.00 70 1016.8
20260505121547 64 247 5.0 12.0 0.00 0.00 0.00 71 1017.0
20260505121517 64 243 5.0 12.0 0.00 0.00 0.00 71 1016.8
20260505121047 64 248 3.0 12.0 0.00 0.00 0.00 72 1017.1
20260505121007 63 105 3.0 12.0 0.00 0.00 0.00 72 1016.8
20260505120547 63 258 5.0 12.0 0.00 0.00 0.00 72 1017.2
20260505120503 63 198 5.0 12.0 0.00 0.00 0.00 72 1016.8
20260505120050 63 231 3.0 9.0 0.00 0.00 0.00 73 1017.1
20260505120018 63 252 4.0 9.0 0.00 0.00 0.00 73 1016.6
20260505115546 63 233 4.0 10.0 0.00 0.00 0.00 73 1017.1
20260505115509 62 258 4.0 10.0 0.00 0.00 0.00 73 1016.8
20260505115045 62 248 3.0 10.0 0.00 0.00 0.00 74 1017.1
20260505115004 62 252 3.0 10.0 0.00 0.00 0.00 73 1016.8
20260505114545 62 118 4.0 10.0 0.00 0.00 0.00 74 1017.2
20260505114518 62 244 5.0 10.0 0.00 0.00 0.00 73 1016.8
20260505114045 62 89 2.0 10.0 0.00 0.00 0.00 74 1017.1
20260505114010 62 264 3.0 10.0 0.00 0.00 0.00 74 1016.7
20260505113543 62 206 4.0 9.0 0.00 0.00 0.00 74 1017.1
20260505113503 62 139 5.0 9.0 0.00 0.00 0.00 74 1016.7
20260505113049 61 212 1.0 8.0 0.00 0.00 0.00 76 1017.1
20260505113024 61 162 1.0 8.0 0.00 0.00 0.00 75 1016.7
20260505112546 61 271 2.0 8.0 0.00 0.00 0.00 76 1016.9
20260505112512 61 298 3.0 8.0 0.00 0.00 0.00 76 1016.7
20260505112043 60 258 3.0 8.0 0.00 0.00 0.00 77 1017.0
20260505112004 60 177 3.0 8.0 0.00 0.00 0.00 76 1016.6
20260505111543 60 247 1.0 8.0 0.00 0.00 0.00 78 1017.0
20260505111521 60 285 2.0 8.0 0.00 0.00 0.00 77 1016.7
20260505111042 60 116 1.0 5.0 0.00 0.00 0.00 78 1016.9
20260505111011 60 238 2.0 5.0 0.00 0.00 0.00 78 1016.6
20260505110542 59 274 1.0 7.0 0.00 0.00 0.00 78 1016.8
20260505110504 59 235 1.0 7.0 0.00 0.00 0.00 78 1016.5
20260505102036 58 242 1.0 4.0 0.00 0.00 0.00 81 1016.5
20260505102008 58 165 1.0 5.0 0.00 0.00 0.00 81 1016.1
20260505101556 58 169 0.0 5.0 0.00 0.00 0.00 81 1016.4
20260505101532 58 238 0.0 5.0 0.00 0.00 0.00 80 1016.0
20260505101035 58 218 1.0 5.0 0.00 0.00 0.00 81 1016.4
20260505101010 58 243 1.0 5.0 0.00 0.00 0.00 80 1015.9
20260505100534 58 266 0.0 4.0 0.00 0.00 0.00 80 1016.3
20260505100505 58 137 1.0 4.0 0.00 0.00 0.00 80 1015.8
20260505100054 58 186 0.0 5.0 0.00 0.00 0.00 79 1016.2
20260505100028 58 134 0.0 5.0 0.00 0.00 0.00 79 1015.8
20260505095536 58 183 0.0 6.0 0.00 0.00 0.00 79 1016.2
20260505095508 58 219 1.0 6.0 0.00 0.00 0.00 78 1015.7
20260505095030 59 284 1.0 6.0 0.00 0.00 0.00 79 1016.2
20260505095008 59 266 1.0 6.0 0.00 0.00 0.00 78 1015.7
20260505094532 59 223 1.0 9.0 0.00 0.00 0.00 79 1016.1
20260505094526 59 248 1.0 9.0 0.00 0.00 0.00 78 1015.7
20260505094029 59 211 2.0 9.0 0.00 0.00 0.00 78 1016.1
20260505094010 59 254 2.0 9.0 0.00 0.00 0.00 78 1015.6
20260505093528 59 315 2.0 8.0 0.00 0.00 0.00 78 1016.0
20260505093506 59 268 2.0 7.0 0.00 0.00 0.00 78 1015.6
20260505093035 59 253 2.0 8.0 0.00 0.00 0.00 78 1015.5
20260505093028 59 275 2.0 8.0 0.00 0.00 0.00 78 1016.1
20260505092528 59 104 1.0 8.0 0.00 0.00 0.00 78 1016.1
20260505092506 59 258 1.0 8.0 0.00 0.00 0.00 77 1015.6
20260505092028 59 172 0.0 6.0 0.00 0.00 0.00 78 1016.1
20260505092009 59 207 1.0 6.0 0.00 0.00 0.00 77 1015.6
20260505091527 59 233 1.0 6.0 0.00 0.00 0.00 77 1015.9
20260505091025 59 268 2.0 10.0 0.00 0.00 0.00 77 1016.0
20260505091007 59 260 2.0 10.0 0.00 0.00 0.00 77 1015.5
20260505090531 59 228 3.0 10.0 0.00 0.00 0.00 77 1016.0
20260505090507 59 243 3.0 10.0 0.00 0.00 0.00 77 1015.5
20260505090028 59 312 3.0 7.0 0.00 0.00 0.00 77 1015.4
20260505090025 59 278 2.0 7.0 0.00 0.00 0.00 77 1015.8
20260505085525 59 211 2.0 7.0 0.00 0.00 0.00 77 1015.8
20260505085508 59 234 2.0 7.0 0.00 0.00 0.00 77 1015.4
20260505085024 59 241 2.0 6.0 0.00 0.00 0.00 77 1015.8
20260505085009 59 262 2.0 6.0 0.00 0.00 0.00 76 1015.4
20260505084529 60 262 2.0 8.0 0.00 0.00 0.00 76 1015.5
20260505084524 60 210 1.0 8.0 0.00 0.00 0.00 77 1015.8
20260505084022 60 230 2.0 8.0 0.00 0.00 0.00 76 1015.8
20260505084004 60 245 3.0 8.0 0.00 0.00 0.00 76 1015.5
20260505083524 60 143 2.0 8.0 0.00 0.00 0.00 76 1015.8
20260505083510 60 181 2.0 8.0 0.00 0.00 0.00 76 1015.5
20260505083032 60 264 1.0 5.0 0.00 0.00 0.00 76 1015.5
20260505083024 60 255 1.0 5.0 0.00 0.00 0.00 76 1015.9
20260505082521 60 207 1.0 7.0 0.00 0.00 0.00 76 1015.8
20260505082504 60 267 1.0 7.0 0.00 0.00 0.00 75 1015.5
20260505082020 60 76 2.0 7.0 0.00 0.00 0.00 75 1015.7
20260505082008 60 153 2.0 7.0 0.00 0.00 0.00 75 1015.5
20260505081536 60 131 1.0 6.0 0.00 0.00 0.00 75 1015.5
20260505081520 60 258 0.0 6.0 0.00 0.00 0.00 75 1015.8
20260505081019 60 241 1.0 7.0 0.00 0.00 0.00 75 1015.6
20260505081004 60 240 1.0 7.0 0.00 0.00 0.00 74 1015.4
20260505080518 61 260 1.0 7.0 0.00 0.00 0.00 75 1015.6
20260505080509 61 264 2.0 7.0 0.00 0.00 0.00 74 1015.4
20260505080030 61 240 2.0 7.0 0.00 0.00 0.00 74 1015.3
20260505080018 61 240 1.0 7.0 0.00 0.00 0.00 74 1015.6
20260505075518 61 230 2.0 7.0 0.00 0.00 0.00 74 1015.5
20260505075507 61 217 3.0 7.0 0.00 0.00 0.00 74 1015.3
20260505075016 61 263 1.0 6.0 0.00 0.00 0.00 74 1015.6
20260505075014 61 141 1.0 6.0 0.00 0.00 0.00 74 1015.2
20260505074530 61 257 1.0 6.0 0.00 0.00 0.00 74 1015.2
20260505074516 61 167 1.0 6.0 0.00 0.00 0.00 74 1015.6
20260505074016 61 231 1.0 7.0 0.00 0.00 0.00 74 1015.6
20260505074010 61 241 2.0 7.0 0.00 0.00 0.00 73 1015.2
20260505073514 61 224 2.0 9.0 0.00 0.00 0.00 73 1015.5
20260505073510 61 227 3.0 9.0 0.00 0.00 0.00 73 1015.2
20260505073030 61 244 3.0 9.0 0.00 0.00 0.00 73 1015.4
20260505072514 61 256 3.0 10.0 0.00 0.00 0.00 73 1015.3
20260505072512 61 261 4.0 10.0 0.00 0.00 0.00 73 1015.0
20260505072014 61 304 3.0 10.0 0.00 0.00 0.00 73 1015.3
20260505072007 61 180 3.0 10.0 0.00 0.00 0.00 73 1015.0
20260505071527 61 338 4.0 10.0 0.00 0.00 0.00 72 1015.0
20260505071513 61 7 3.0 10.0 0.00 0.00 0.00 73 1015.3
20260505071014 61 283 2.0 8.0 0.00 0.00 0.00 73 1015.3
20260505071007 61 190 2.0 8.0 0.00 0.00 0.00 72 1015.0
20260505070515 62 275 2.0 11.0 0.00 0.00 0.00 72 1015.2
20260505070511 61 167 2.0 11.0 0.00 0.00 0.00 72 1014.9
20260505070036 62 269 3.0 11.0 0.00 0.00 0.00 71 1014.9
20260505070014 62 231 2.0 11.0 0.00 0.00 0.00 72 1015.2
20260505065511 62 254 1.0 7.0 0.00 0.00 0.00 72 1015.2
20260505065009 62 242 2.0 7.0 0.00 0.00 0.00 71 1015.2
20260505065003 62 272 3.0 7.0 0.00 0.00 0.00 71 1015.0
20260505064520 62 324 2.0 6.0 0.00 0.00 0.00 70 1015.0
20260505064515 62 185 1.0 6.0 0.00 0.00 0.00 71 1015.3
20260505064009 62 230 2.0 6.0 0.00 0.00 0.00 71 1015.4
20260505064002 62 176 3.0 6.0 0.00 0.00 0.00 70 1015.0
20260505063508 62 176 1.0 10.0 0.00 0.00 0.00 70 1015.5
20260505063504 62 294 1.0 10.0 0.00 0.00 0.00 70 1015.1
20260505063019 62 198 5.0 10.0 0.00 0.00 0.00 69 1015.1
20260505063007 62 249 4.0 10.0 0.00 0.00 0.00 70 1015.5
20260505062507 62 247 1.0 10.0 0.00 0.00 0.00 70 1015.5
20260505062010 63 266 3.0 10.0 0.00 0.00 0.00 69 1015.5
20260505062008 63 227 4.0 10.0 0.00 0.00 0.00 69 1015.2
20260505061519 63 242 2.0 9.0 0.00 0.00 0.00 69 1015.5
20260505061005 63 259 1.0 8.0 0.00 0.00 0.00 69 1015.5
20260505061003 63 262 1.0 8.0 0.00 0.00 0.00 68 1015.2
20260505060506 63 252 3.0 11.0 0.00 0.00 0.00 68 1015.5
20260505060504 63 174 4.0 11.0 0.00 0.00 0.00 68 1015.1
20260505060021 63 224 3.0 11.0 0.00 0.00 0.00 68 1015.1
20260505060004 63 225 3.0 11.0 0.00 0.00 0.00 68 1015.4
20260505055503 63 259 3.0 13.0 0.00 0.00 0.00 67 1015.1
20260505055005 63 182 4.0 13.0 0.00 0.00 0.00 67 1015.2
20260505055002 63 193 4.0 13.0 0.00 0.00 0.00 68 1015.5
20260505054524 63 247 4.0 12.0 0.00 0.00 0.00 67 1015.2
20260505054502 63 244 3.0 12.0 0.00 0.00 0.00 68 1015.6
20260505054002 63 151 4.0 12.0 0.00 0.00 0.00 67 1015.3
20260505053600 63 221 3.0 9.0 0.00 0.00 0.00 68 1015.6
20260505053505 63 273 4.0 9.0 0.00 0.00 0.00 67 1015.2
20260505053100 64 266 3.0 11.0 0.00 0.00 0.00 68 1015.6
20260505053022 64 219 4.0 11.0 0.00 0.00 0.00 67 1015.2
20260505052559 64 134 5.0 12.0 0.00 0.00 0.00 67 1015.6
20260505052504 64 127 6.0 12.0 0.00 0.00 0.00 67 1015.3
20260505052058 64 256 2.0 12.0 0.00 0.00 0.00 67 1015.6
20260505052009 64 236 3.0 12.0 0.00 0.00 0.00 67 1015.2
20260505051557 64 163 3.0 10.0 0.00 0.00 0.00 67 1015.6
20260505051543 64 248 4.0 10.0 0.00 0.00 0.00 67 1015.4
20260505051057 64 275 4.0 10.0 0.00 0.00 0.00 67 1015.7
20260505051004 64 336 4.0 14.0 0.00 0.00 0.00 67 1015.4
20260505050556 64 59 2.0 14.0 0.00 0.00 0.00 67 1015.7
20260505050509 64 293 3.0 14.0 0.00 0.00 0.00 66 1015.4
20260505041552 64 327 3.0 11.0 0.00 0.00 0.00 67 1015.7
20260505041528 65 177 3.0 11.0 0.00 0.00 0.00 67 1015.4
20260505041051 64 211 3.0 11.0 0.00 0.00 0.00 67 1015.7
20260505041004 64 158 3.0 11.0 0.00 0.00 0.00 67 1015.3
20260505040550 64 240 3.0 11.0 0.00 0.00 0.00 67 1015.6
20260505040507 64 289 3.0 11.0 0.00 0.00 0.00 67 1015.3
20260505040050 64 181 3.0 11.0 0.00 0.00 0.00 67 1015.7
20260505040027 64 271 3.0 11.0 0.00 0.00 0.00 67 1015.3
20260505035549 65 237 2.0 7.0 0.00 0.00 0.00 67 1015.6
20260505035503 65 111 3.0 7.0 0.00 0.00 0.00 67 1015.2
20260505035049 65 215 2.0 12.0 0.00 0.00 0.00 67 1015.6
20260505035007 65 240 3.0 12.0 0.00 0.00 0.00 66 1015.2
20260505034551 65 218 4.0 12.0 0.00 0.00 0.00 66 1015.5
20260505034508 65 164 5.0 12.0 0.00 0.00 0.00 66 1015.3
20260505034049 65 226 3.0 10.0 0.00 0.00 0.00 66 1015.6
20260505034004 65 265 4.0 11.0 0.00 0.00 0.00 66 1015.3
20260505033549 65 195 2.0 11.0 0.00 0.00 0.00 66 1015.5
20260505033508 65 255 3.0 11.0 0.00 0.00 0.00 66 1015.2
20260505033049 65 259 4.0 11.0 0.00 0.00 0.00 66 1015.5
20260505033009 65 260 5.0 11.0 0.00 0.00 0.00 66 1015.1
20260505032548 65 95 4.0 16.0 0.00 0.00 0.00 66 1015.5
20260505032504 65 206 4.0 16.0 0.00 0.00 0.00 66 1015.2
20260505032148 65 256 4.0 16.0 0.00 0.00 0.00 66 1015.6
20260505032010 65 255 4.0 16.0 0.00 0.00 0.00 65 1015.1
20260505031552 65 221 4.0 12.0 0.00 0.00 0.00 66 1015.5
20260505031506 65 205 5.0 12.0 0.00 0.00 0.00 66 1015.1
20260505031048 65 248 2.0 13.0 0.00 0.00 0.00 66 1015.4
20260505031004 65 171 3.0 13.0 0.00 0.00 0.00 66 1015.0
20260505030552 65 281 4.0 14.0 0.00 0.00 0.00 66 1015.5
20260505030508 65 229 4.0 14.0 0.00 0.00 0.00 66 1015.1
20260505030049 65 260 3.0 14.0 0.00 0.00 0.00 66 1015.5
20260505030010 65 285 4.0 14.0 0.00 0.00 0.00 66 1015.1
20260505025549 66 157 3.0 14.0 0.00 0.00 0.00 66 1015.5
20260505025511 66 177 3.0 14.0 0.00 0.00 0.00 66 1015.1
20260505025047 66 242 4.0 14.0 0.00 0.00 0.00 67 1015.5
20260505025008 66 244 4.0 12.0 0.00 0.00 0.00 66 1015.1
20260505024552 66 230 5.0 12.0 0.00 0.00 0.00 67 1015.4
20260505024512 66 226 6.0 12.0 0.00 0.00 0.00 66 1015.0
20260505024046 66 239 6.0 12.0 0.00 0.00 0.00 67 1015.3
20260505024006 66 176 7.0 12.0 0.00 0.00 0.00 67 1015.0
20260505023546 66 228 3.0 12.0 0.00 0.00 0.00 68 1015.2
20260505023508 66 239 4.0 12.0 0.00 0.00 0.00 67 1014.9
20260505023051 66 237 5.0 12.0 0.00 0.00 0.00 68 1015.3
20260505023011 66 214 6.0 12.0 0.00 0.00 0.00 67 1014.9
20260505022546 66 204 5.0 11.0 0.00 0.00 0.00 68 1015.3
20260505022506 66 244 5.0 11.0 0.00 0.00 0.00 68 1014.9
20260505022049 66 155 4.0 12.0 0.00 0.00 0.00 68 1015.4
20260505022012 66 240 4.0 12.0 0.00 0.00 0.00 68 1015.0
20260505021546 66 232 4.0 12.0 0.00 0.00 0.00 68 1015.4
20260505021512 66 254 4.0 12.0 0.00 0.00 0.00 68 1015.1
20260505021045 66 192 4.0 8.0 0.00 0.00 0.00 68 1015.3
20260505021005 66 142 4.0 8.0 0.00 0.00 0.00 68 1015.2
20260505020545 66 252 4.0 8.0 0.00 0.00 0.00 68 1015.5
20260505020511 66 252 4.0 11.0 0.00 0.00 0.00 68 1015.1
20260505020049 66 262 2.0 11.0 0.00 0.00 0.00 68 1015.5
20260505020012 66 281 2.0 11.0 0.00 0.00 0.00 68 1015.1
20260505015545 66 268 5.0 13.0 0.00 0.00 0.00 68 1015.4
20260505015512 66 311 6.0 13.0 0.00 0.00 0.00 68 1015.1
20260505015045 66 162 3.0 13.0 0.00 0.00 0.00 68 1015.3
20260505015012 66 162 3.0 13.0 0.00 0.00 0.00 68 1014.9
20260505014551 66 232 3.0 9.0 0.00 0.00 0.00 68 1015.4
20260505014516 66 231 3.0 9.0 0.00 0.00 0.00 68 1015.1
20260505014044 66 130 3.0 8.0 0.00 0.00 0.00 68 1015.3
20260505014012 66 235 4.0 8.0 0.00 0.00 0.00 67 1014.9
20260505013544 67 145 2.0 8.0 0.00 0.00 0.00 68 1015.3
20260505013508 67 240 3.0 11.0 0.00 0.00 0.00 67 1015.0
20260505013044 67 256 2.0 11.0 0.00 0.00 0.00 67 1015.3
20260505013018 67 188 3.0 11.0 0.00 0.00 0.00 67 1014.8
20260505012545 67 153 3.0 11.0 0.00 0.00 0.00 67 1015.2
20260505012508 67 286 2.0 11.0 0.00 0.00 0.00 67 1014.8
20260505012044 67 195 4.0 11.0 0.00 0.00 0.00 67 1015.1
20260505012009 67 297 4.0 11.0 0.00 0.00 0.00 67 1014.8
20260505011547 67 241 3.0 11.0 0.00 0.00 0.00 67 1015.1
20260505011518 67 65 2.0 8.0 0.00 0.00 0.00 67 1014.6
20260505011043 67 157 1.0 9.0 0.00 0.00 0.00 67 1015.0
20260505011009 67 281 1.0 9.0 0.00 0.00 0.00 66 1014.5
20260505010544 67 57 3.0 10.0 0.00 0.00 0.00 66 1014.9
20260505010512 67 274 4.0 10.0 0.00 0.00 0.00 66 1014.4
20260505010103 67 133 3.0 10.0 0.00 0.00 0.00 66 1014.8
20260505010019 67 181 4.0 10.0 0.00 0.00 0.00 66 1014.3
20260505005547 67 188 2.0 10.0 0.00 0.00 0.00 66 1014.7
20260505005509 67 141 2.0 10.0 0.00 0.00 0.00 65 1014.3
20260505005042 68 222 3.0 10.0 0.00 0.00 0.00 66 1014.7
20260505005004 68 217 3.0 10.0 0.00 0.00 0.00 65 1014.2
20260505004543 68 158 4.0 11.0 0.00 0.00 0.00 66 1014.6
20260505004518 68 187 3.0 11.0 0.00 0.00 0.00 65 1014.2
20260505004042 68 199 2.0 11.0 0.00 0.00 0.00 65 1014.5
20260505004008 68 190 2.0 11.0 0.00 0.00 0.00 65 1014.0
20260505003542 68 162 1.0 9.0 0.00 0.00 0.00 65 1014.5
20260505003502 68 259 2.0 9.0 0.00 0.00 0.00 64 1014.0
20260505003046 68 128 4.0 10.0 0.00 0.00 0.00 64 1014.4
20260505003022 68 286 5.0 10.0 0.00 0.00 0.00 64 1014.0
20260505002545 68 250 2.0 12.0 0.00 0.00 0.00 64 1014.3
20260505002509 68 146 2.0 12.0 0.00 0.00 0.00 63 1013.9
20260505002042 69 102 3.0 16.0 0.00 0.00 0.00 64 1014.3
20260505002004 69 108 4.0 16.0 0.00 0.00 0.00 63 1013.8
20260505001542 69 152 4.0 16.0 0.00 0.00 0.00 63 1014.3
20260505001520 69 297 4.0 16.0 0.00 0.00 0.00 63 1013.9
20260505001038 69 243 2.0 9.0 0.00 0.00 0.00 63 1014.2
20260505001010 69 75 3.0 9.0 0.00 0.00 0.00 62 1013.7
20260505000538 69 166 4.0 10.0 0.00 0.00 0.00 62 1014.1
20260505000504 69 134 4.0 10.0 0.00 0.00 0.00 62 1013.8
20260505000045 70 219 4.0 10.0 0.00 0.00 0.00 62 1014.1
20260505000024 70 127 5.0 11.0 0.00 0.00 0.00 61 1013.7
20260504235538 70 278 3.0 11.0 0.00 0.00 0.00 61 1014.2
20260504235508 70 172 3.0 11.0 0.00 0.00 0.00 61 1013.7
20260504235041 70 162 4.0 11.0 0.00 0.00 0.00 61 1014.1
20260504235005 70 150 4.0 15.0 0.00 0.00 0.00 60 1013.8
20260504234537 70 228 3.0 15.0 0.00 0.00 0.00 60 1014.1
20260504234524 70 250 3.0 15.0 0.00 0.00 0.00 59 1013.6
20260504234037 71 241 5.0 15.0 0.00 0.00 0.00 59 1014.0
20260504234007 71 156 6.0 15.0 0.00 0.00 0.00 59 1013.6
20260504233537 71 141 5.0 12.0 0.00 0.00 0.00 59 1014.0
20260504233504 71 257 5.0 12.0 0.00 0.00 0.00 58 1013.6
20260504233039 71 164 3.0 13.0 0.00 0.00 0.00 58 1013.9
20260504233024 71 129 4.0 13.0 0.00 0.00 0.00 58 1013.4
20260504232537 72 240 3.0 13.0 0.00 0.00 0.00 58 1013.7
20260504232509 72 219 4.0 13.0 0.00 0.00 0.00 57 1013.4
20260504232037 72 157 4.0 12.0 0.00 0.00 0.00 57 1013.7
20260504232006 72 194 4.0 12.0 0.00 0.00 0.00 56 1013.3
20260504231543 73 252 5.0 13.0 0.00 0.00 0.00 57 1013.6
20260504231524 73 273 5.0 14.0 0.00 0.00 0.00 56 1013.2
20260504231037 73 192 4.0 14.0 0.00 0.00 0.00 56 1013.5
20260504231012 73 163 4.0 14.0 0.00 0.00 0.00 55 1013.3
20260504230536 74 279 4.0 14.0 0.00 0.00 0.00 54 1013.4
20260504230507 74 217 4.0 14.0 0.00 0.00 0.00 54 1013.3
20260504230043 74 219 5.0 13.0 0.00 0.00 0.00 53 1013.5
20260504230026 75 149 6.0 15.0 0.00 0.00 0.00 53 1013.3
20260504225538 75 195 6.0 16.0 0.00 0.00 0.00 53 1013.4
20260504225514 75 151 6.0 16.0 0.00 0.00 0.00 51 1013.2
20260504225035 76 219 5.0 16.0 0.00 0.00 0.00 50 1013.4
20260504225007 76 75 6.0 16.0 0.00 0.00 0.00 49 1013.2
20260504224535 77 190 3.0 13.0 0.00 0.00 0.00 42 1013.3
20260504224526 78 148 2.0 9.0 0.00 0.00 0.00 42 1013.1
20260504224035 78 283 4.0 11.0 0.00 0.00 0.00 39 1013.2
20260504224010 78 269 4.0 11.0 0.00 0.00 0.00 39 1013.0
20260504223539 78 217 4.0 11.0 0.00 0.00 0.00 39 1013.1
20260504223508 78 295 5.0 11.0 0.00 0.00 0.00 38 1012.9
20260504223035 78 249 3.0 11.0 0.00 0.00 0.00 39 1013.1
20260504223027 78 278 3.0 12.0 0.00 0.00 0.00 39 1012.8
20260504222535 78 266 3.0 12.0 0.00 0.00 0.00 39 1013.2
20260504222508 78 274 2.0 12.0 0.00 0.00 0.00 40 1012.9
20260504222033 77 233 5.0 16.0 0.00 0.00 0.00 39 1013.1
20260504222011 77 272 6.0 16.0 0.00 0.00 0.00 38 1012.9
20260504221545 77 258 6.0 16.0 0.00 0.00 0.00 40 1013.1
20260504221528 77 250 7.0 16.0 0.00 0.00 0.00 39 1012.9
20260504221032 78 255 6.0 12.0 0.00 0.00 0.00 39 1013.2
20260504221009 78 246 6.0 12.0 0.00 0.00 0.00 38 1012.9
20260504220532 78 195 5.0 14.0 0.00 0.00 0.00 39 1013.2
20260504220509 78 207 5.0 14.0 0.00 0.00 0.00 39 1012.9
20260504220034 78 318 5.0 15.0 0.00 0.00 0.00 39 1013.3
20260504220029 78 218 6.0 17.0 0.00 0.00 0.00 38 1012.9
20260504215532 78 216 6.0 17.0 0.00 0.00 0.00 39 1013.3
20260504215505 78 236 5.0 17.0 0.00 0.00 0.00 38 1013.0
20260504215030 78 270 5.0 16.0 0.00 0.00 0.00 38 1013.4
20260504215008 78 285 5.0 16.0 0.00 0.00 0.00 38 1012.9
20260504214531 78 265 5.0 14.0 0.00 0.00 0.00 39 1013.2
20260504214526 78 184 6.0 14.0 0.00 0.00 0.00 39 1012.9
20260504214030 78 118 5.0 12.0 0.00 0.00 0.00 39 1013.4
20260504214005 78 250 5.0 12.0 0.00 0.00 0.00 38 1013.0
20260504213530 78 288 4.0 16.0 0.00 0.00 0.00 39 1013.3
20260504213509 78 174 4.0 16.0 0.00 0.00 0.00 39 1013.0
20260504213037 78 261 6.0 16.0 0.00 0.00 0.00 39 1013.4
20260504213026 78 275 7.0 16.0 0.00 0.00 0.00 39 1013.0
20260504212528 79 269 5.0 13.0 0.00 0.00 0.00 38 1013.4
20260504212510 79 280 6.0 13.0 0.00 0.00 0.00 37 1013.0
20260504212028 79 250 3.0 10.0 0.00 0.00 0.00 38 1013.4
20260504212009 79 254 2.0 7.0 0.00 0.00 0.00 39 1013.1
20260504211534 79 277 2.0 12.0 0.00 0.00 0.00 38 1013.4
20260504211528 79 262 3.0 12.0 0.00 0.00 0.00 37 1013.0
20260504211028 78 252 5.0 14.0 0.00 0.00 0.00 39 1013.4
20260504211011 78 316 6.0 14.0 0.00 0.00 0.00 38 1013.0
20260504210528 78 308 7.0 14.0 0.00 0.00 0.00 38 1013.6
20260504210510 78 257 8.0 14.0 0.00 0.00 0.00 37 1013.2
20260504210035 79 58 5.0 16.0 0.00 0.00 0.00 38 1013.1
20260504210027 79 69 4.0 16.0 0.00 0.00 0.00 38 1013.5
20260504205527 79 287 4.0 16.0 0.00 0.00 0.00 39 1013.4
20260504205509 79 249 4.0 16.0 0.00 0.00 0.00 39 1013.1
20260504205025 79 208 3.0 12.0 0.00 0.00 0.00 40 1013.4
20260504205008 79 271 4.0 12.0 0.00 0.00 0.00 39 1013.1
20260504204530 78 274 3.0 12.0 0.00 0.00 0.00 38 1013.1
20260504204025 78 242 3.0 12.0 0.00 0.00 0.00 39 1013.5
20260504204005 78 278 3.0 12.0 0.00 0.00 0.00 39 1013.3
20260504203528 78 253 3.0 13.0 0.00 0.00 0.00 40 1013.5
20260504203513 78 276 3.0 13.0 0.00 0.00 0.00 39 1013.2
20260504203028 77 149 5.0 13.0 0.00 0.00 0.00 40 1013.5
20260504203020 77 236 5.0 13.0 0.00 0.00 0.00 40 1013.2
20260504202524 78 269 4.0 15.0 0.00 0.00 0.00 40 1013.5
20260504202507 78 141 5.0 15.0 0.00 0.00 0.00 40 1013.2
20260504202023 78 137 6.0 18.0 0.00 0.00 0.00 39 1013.6
20260504202004 78 181 6.0 18.0 0.00 0.00 0.00 39 1013.2
20260504201525 78 249 7.0 18.0 0.00 0.00 0.00 39 1013.5
20260504201512 78 262 7.0 18.0 0.00 0.00 0.00 39 1013.2
20260504201023 79 284 3.0 16.0 0.00 0.00 0.00 38 1013.5
20260504201014 78 105 3.0 16.0 0.00 0.00 0.00 39 1013.1
20260504200525 78 230 5.0 16.0 0.00 0.00 0.00 38 1013.5
20260504200503 78 296 6.0 16.0 0.00 0.00 0.00 37 1013.2
20260504200022 79 226 2.0 14.0 0.00 0.00 0.00 40 1013.6
20260504200012 79 243 2.0 14.0 0.00 0.00 0.00 39 1013.2
20260504195520 78 219 5.0 14.0 0.00 0.00 0.00 38 1013.6
20260504195508 78 149 6.0 14.0 0.00 0.00 0.00 38 1013.2
20260504195020 77 136 2.0 13.0 0.00 0.00 0.00 39 1013.7
20260504195004 77 243 3.0 13.0 0.00 0.00 0.00 38 1013.3
20260504194526 78 259 7.0 15.0 0.00 0.00 0.00 36 1013.9
20260504194514 78 268 7.0 15.0 0.00 0.00 0.00 36 1013.4
20260504194019 78 259 6.0 15.0 0.00 0.00 0.00 38 1013.9
20260504194006 78 233 6.0 15.0 0.00 0.00 0.00 38 1013.5
20260504193520 78 293 5.0 14.0 0.00 0.00 0.00 40 1013.9
20260504193505 78 287 6.0 14.0 0.00 0.00 0.00 39 1013.6
20260504193018 77 314 5.0 14.0 0.00 0.00 0.00 39 1013.7
20260504192516 77 237 5.0 13.0 0.00 0.00 0.00 40 1014.1
20260504192508 77 317 6.0 13.0 0.00 0.00 0.00 39 1013.8
20260504192016 77 304 6.0 13.0 0.00 0.00 0.00 41 1014.1
20260504192003 77 248 6.0 13.0 0.00 0.00 0.00 40 1013.8
20260504191525 77 303 7.0 17.0 0.00 0.00 0.00 39 1014.1
20260504191015 77 263 6.0 17.0 0.00 0.00 0.00 39 1014.2
20260504191006 77 316 7.0 17.0 0.00 0.00 0.00 38 1014.0
20260504190514 78 239 6.0 17.0 0.00 0.00 0.00 40 1014.4
20260504190503 78 198 7.0 17.0 0.00 0.00 0.00 39 1014.0
20260504190114 77 255 5.0 16.0 0.00 0.00 0.00 40 1014.4
20260504190018 77 302 6.0 16.0 0.00 0.00 0.00 40 1014.0
20260504185512 77 294 5.0 14.0 0.00 0.00 0.00 39 1014.5
20260504185503 77 232 6.0 14.0 0.00 0.00 0.00 39 1014.1
20260504185012 77 242 4.0 14.0 0.00 0.00 0.00 41 1014.5
20260504185005 77 122 4.0 14.0 0.00 0.00 0.00 40 1014.1
20260504184520 77 251 6.0 13.0 0.00 0.00 0.00 40 1014.3
20260504184516 77 249 5.0 11.0 0.00 0.00 0.00 41 1014.6
20260504184009 77 275 3.0 15.0 0.00 0.00 0.00 42 1014.7
20260504184003 77 159 4.0 15.0 0.00 0.00 0.00 41 1014.3
20260504183508 76 282 8.0 15.0 0.00 0.00 0.00 41 1014.8
20260504183506 76 271 8.0 15.0 0.00 0.00 0.00 41 1014.4
20260504183025 76 284 6.0 18.0 0.00 0.00 0.00 43 1014.4
20260504183008 76 218 6.0 18.0 0.00 0.00 0.00 44 1014.8
20260504182508 76 251 5.0 18.0 0.00 0.00 0.00 42 1015.0
20260504182505 76 216 5.0 18.0 0.00 0.00 0.00 42 1014.6
20260504182009 77 298 6.0 13.0 0.00 0.00 0.00 41 1014.7
20260504181522 76 266 4.0 13.0 0.00 0.00 0.00 42 1014.6
20260504181512 76 95 3.0 13.0 0.00 0.00 0.00 43 1015.2
20260504181006 75 302 4.0 14.0 0.00 0.00 0.00 43 1015.2
20260504181002 75 292 5.0 14.0 0.00 0.00 0.00 43 1014.7
20260504180507 75 289 5.0 14.0 0.00 0.00 0.00 43 1014.8
20260504180504 75 296 5.0 14.0 0.00 0.00 0.00 44 1015.2
20260504180028 75 270 6.0 15.0 0.00 0.00 0.00 42 1014.9
20260504180005 75 229 5.0 15.0 0.00 0.00 0.00 43 1015.2
20260504175504 75 225 5.0 15.0 0.00 0.00 0.00 45 1015.2
20260504175501 75 271 6.0 15.0 0.00 0.00 0.00 44 1014.7
20260504175006 75 293 5.0 13.0 0.00 0.00 0.00 42 1014.8
20260504175002 75 306 5.0 13.0 0.00 0.00 0.00 43 1015.2
20260504174524 75 328 6.0 14.0 0.00 0.00 0.00 44 1014.9
20260504174502 75 325 6.0 14.0 0.00 0.00 0.00 45 1015.3
20260504174003 75 305 6.0 14.0 0.00 0.00 0.00 43 1015.1
20260504173506 75 98 4.0 12.0 0.00 0.00 0.00 44 1014.9
20260504173501 75 95 4.0 12.0 0.00 0.00 0.00 45 1015.2
20260504173100 75 208 5.0 12.0 0.00 0.00 0.00 45 1015.3
20260504173024 75 221 3.0 17.0 0.00 0.00 0.00 45 1015.0
20260504172559 74 292 5.0 17.0 0.00 0.00 0.00 46 1015.4
20260504172503 74 314 6.0 17.0 0.00 0.00 0.00 45 1015.2
20260504172059 73 268 8.0 17.0 0.00 0.00 0.00 46 1015.4
20260504172008 73 313 9.0 16.0 0.00 0.00 0.00 45 1015.1
20260504171600 73 238 8.0 16.0 0.00 0.00 0.00 45 1015.4
20260504171526 74 274 9.0 16.0 0.00 0.00 0.00 44 1015.3